7 * 24
多渠道服务支持
STARLINK-37192(NORAD编号68342)是美国太空探索技术公司(SpaceX)星链(Starlink)低轨互联网星座中的一颗卫星,隶属于全球覆盖的星链通信网络项目。星链计划最终计划部署4.2万颗近地轨道卫星,旨在为全球提供高速低时延互联网接入服务。该卫星配备氩气离子推进系统用于轨道机动与脱轨,采用多频段相控阵天线实现高带宽通信,搭载太阳能供电系统与星跟踪导航设备,作为星链星座的组成部分,为消费端及特殊用户提供稳定的天基通信支持。
美国
(US)
| 数据来源 | 国际轨道数据 |
| 星历时间: | 2026-06-09T22:30:04+0800 21小时前 查看轨道信息 |
| 半长轴: | 6837.779km |
| 偏心率: | 0.0001276 |
| 轨道倾角: | 53.158° |
| 近地点辐角 | 71.299° |
| 升交点赤经 | 276.685° |
| 平近点角 | 288.815° |
| 近地点: | 458.769km |
| 远地点: | 460.515km |
| 周期: | 93.785分钟 |
| 每日圈数: | 15.354307 |